Weather in Plotnikovo

Russia / Novosibirsk Oblast     55°02′17″N   83°23′49″E
temp.,
°C
wind,
m/s
gust,
m/s
humid.,
%
clouds,
%
prec.,
mm/h
press.,
hPa
HPBL,
m
3 march, wed
wed301:00−16ssw129796 0.1 101720
04:00−16ssw229799 0.1 101726
07:00−19ssw239891 0.1 101820
10:00−16ssw239686 0.1 1019145
13:00−12sw359089 0.1 1019352
16:00−10sw4691100 0.1 1019452
19:00−13ssw3495100 0.1 102066
22:00−15ssw489683 0.0 1022192
4 march, thu
thu401:00−14ssw5139477 0.1 1022362
04:00−15ssw7149289 0.0 1022372
07:00−14s7149395 0.1 1022420
10:00−10ssw81590100 0.4 1021623
13:00−7ssw81590100 0.5 1020661
16:00−6ssw81494100 1.0 1019761
19:00−5ssw81593100 2.0 1018757
22:00−6ssw81688100 0.4 1017657
5 march, fri
fri501:00−8s71588100 0.4 1016457
04:00−8ssw71685100 0.0 1014455
07:00−8ssw7158293 0.0 1013495
10:00−7ssw81694100 0.3 1011676
13:00−5sw81494100 2.7 1011918
16:00−2wsw91477100 0.9 10141379
19:00−5sw71484100 0.9 1017776
22:00−6sw91693100 1.1 10171166
6 march, sat
sat601:00−6sw81592100 2.1 1019982
04:00−6sw71394100 0.5 1019758
07:00−6ssw71494100 1.6 1019723
10:00−6ssw81594100 1.9 1018841
13:00−5ssw91787100 2.9 1016930
16:00−4sw10178198 0.0 1014975
19:00−5sw10188399 0.0 1013953
22:00−5sw91789100 0.3 1013899
7 march, sun
sun701:00−5sw81691100 0.5 1013782
04:00−4sw81493100 0.2 1014743
07:00−5sw61393100 0.4 1016491
10:00−5ssw61194100 0.0 1016462
13:00−4ssw71395100 1.1 1015601
16:00−2ssw91595100 1.4 1013793
19:00−3ssw71682100 1.7 1013654
22:00−3sw71684100 0.0 1013648